Theta_e
333 328 326 322 317 315 312 308 296 298 297 293 294 295 294 299 301 300 300 302 300 310 321 328 331 325 315 315 315 324 325 321 323 314 314 330 342 345 346 350 350 350 350 349 349 350 352 352 352 352 352 352 352 351 350 350 351 352 351 352 352 352 352 352 351 352 352 351 351 351 350 350 349 350 350 349 349 349 350 349 349 346 345 347 348 349 350 351 351 349 348 348 347 348 348 347 346
326 322 320 321 315 310 306 304 298 296 294 292 294 296 298 299 299 298 299 300 302 304 307 309 326 330 330 329 329 328 326 329 330 329 330 338 343 345 348 350 349 348 349 350 350 350 349 353 352 352 351 351 351 351 351 351 352 351 351 352 352 352 352 352 352 351 351 351 351 351 350 350 350 351 350 350 350 350 350 350 351 350 348 348 349 349 350 351 350 349 349 349 349 349 348 347 347
319 319 317 316 312 310 307 303 293 294 291 289 294 295 298 297 299 300 301 302 304 306 308 309 316 329 329 328 323 324 322 332 333 335 333 340 336 342 349 350 349 349 349 350 350 350 350 352 352 351 351 350 351 351 351 351 351 351 351 351 350 351 351 352 351 351 351 351 351 351 350 350 351 351 351 350 351 351 349 349 350 350 349 347 348 349 351 350 350 349 349 349 349 349 348 348 347
321 320 316 314 306 310 303 299 296 294 290 292 292 296 296 297 299 301 302 303 304 307 308 308 320 333 329 322 327 327 328 330 334 334 331 336 339 345 348 349 350 349 350 350 349 349 350 352 352 351 351 351 351 351 350 350 351 351 350 350 351 351 351 351 351 351 350 350 350 350 351 350 351 350 351 352 352 351 350 349 348 347 348 347 349 351 350 349 350 350 350 349 349 348 347 347 346
318 320 316 313 308 302 301 296 295 294 290 293 292 295 296 298 299 300 303 305 307 307 307 311 323 333 335 331 331 324 326 333 334 337 335 340 346 347 348 348 348 348 348 349 349 349 350 351 352 352 351 351 350 349 349 351 351 350 350 351 351 350 351 351 352 352 350 350 351 350 349 349 348 349 349 349 350 351 350 349 348 349 349 349 350 350 349 349 349 349 348 348 347 347 346 345 345
313 316 316 317 306 308 302 295 293 292 296 296 294 297 298 300 300 301 304 306 306 308 311 319 322 326 328 331 332 328 332 329 335 336 339 339 346 349 348 348 348 347 347 349 349 349 350 352 351 351 351 351 350 350 351 350 350 349 350 351 351 351 351 351 351 351 351 351 351 351 349 349 348 350 349 349 350 349 350 350 349 348 348 347 348 348 348 348 348 347 346 347 346 346 345 345 346
312 312 311 308 304 305 297 294 294 295 297 297 297 298 300 301 302 303 304 303 306 311 328 326 331 330 327 331 333 335 338 338 336 337 341 343 348 348 349 347 347 346 347 348 349 349 350 351 351 351 351 351 350 351 350 350 349 350 350 350 349 350 351 350 350 350 351 351 351 350 350 350 349 349 349 349 349 350 349 348 347 347 347 348 347 347 348 347 346 345 345 345 346 346 346 346 346
311 310 306 302 298 299 296 296 296 296 297 298 301 300 303 303 304 303 302 301 302 302 310 327 331 325 328 335 326 335 340 341 342 344 344 346 347 348 348 347 346 346 346 348 349 349 352 350 351 351 351 351 351 351 350 349 349 350 350 349 349 349 350 350 349 350 350 350 351 349 350 350 350 350 350 350 350 349 349 348 348 347 347 347 347 347 346 346 346 345 345 345 346 346 346 347 346
309 307 302 301 296 296 294 294 295 297 298 299 300 303 306 304 303 301 300 302 302 303 304 306 326 321 328 329 328 334 337 342 345 346 345 347 346 347 347 347 346 345 347 347 349 350 349 351 351 351 352 352 352 350 349 349 349 349 349 349 350 350 350 350 349 350 350 350 350 349 350 350 350 350 350 350 350 349 348 348 348 348 348 347 347 346 346 345 345 345 346 345 346 346 346 346 346
306 305 300 299 298 293 292 294 292 296 296 299 298 300 301 302 302 301 301 301 302 302 305 318 329 321 330 327 329 332 334 342 344 343 345 345 346 347 347 347 347 346 346 347 349 349 350 352 351 351 351 351 350 349 349 349 349 348 348 349 350 350 350 350 350 349 350 350 349 350 350 350 350 350 350 349 348 348 348 348 348 348 346 345 345 345 345 345 345 345 345 345 346 346 346 346 346
302 302 301 298 293 292 291 293 294 296 296 299 300 302 303 303 301 301 302 303 304 302 323 329 323 328 329 327 329 336 340 342 342 340 343 345 347 346 346 348 348 348 346 348 349 349 350 350 352 351 350 350 350 349 349 349 349 348 348 349 349 350 350 350 350 349 350 349 349 350 350 350 349 349 349 349 348 348 348 348 348 347 346 345 346 346 345 345 345 345 345 345 345 345 345 346 345
300 300 299 295 293 293 294 293 294 296 298 299 299 302 303 301 301 309 315 307 305 302 311 330 323 333 327 327 328 335 338 340 342 343 344 347 346 348 348 347 348 348 350 349 348 349 349 349 351 352 351 350 349 349 349 349 348 348 349 349 349 350 349 349 349 349 349 349 349 349 349 349 349 348 348 348 348 348 348 347 348 347 347 347 346 346 345 344 344 344 344 345 345 345 345 345 344
301 297 297 295 294 294 294 292 294 296 297 298 299 301 302 301 307 316 315 312 308 306 313 329 333 332 323 326 331 334 334 339 342 343 344 345 346 347 348 347 347 348 348 349 347 348 349 349 349 350 350 351 349 349 349 349 349 349 349 349 349 350 349 349 349 349 349 349 348 348 348 348 348 348 348 347 348 348 347 347 347 346 347 347 346 345 344 344 344 344 343 344 344 344 345 345 344
302 300 298 293 294 294 293 294 294 294 296 298 300 301 300 300 305 319 317 321 321 319 329 333 333 333 326 327 328 329 334 339 341 343 344 345 346 347 346 347 346 346 348 347 347 348 348 348 349 350 349 351 351 350 350 350 350 349 348 349 349 349 349 348 348 348 349 348 349 349 348 348 348 347 347 347 346 347 348 346 346 346 346 346 345 345 344 344 343 343 344 344 344 345 345 345 344
302 299 301 297 294 293 294 293 294 294 296 298 300 299 300 302 304 318 325 320 325 332 334 338 335 328 323 325 326 330 333 338 341 343 344 345 345 345 345 346 346 345 345 346 348 347 346 348 347 350 352 349 350 349 349 349 349 350 349 349 349 348 348 348 347 348 348 348 348 348 348 348 348 347 347 347 346 347 347 345 344 345 345 344 345 344 344 343 343 342 343 343 344 343 344 345 344
304 300 299 295 293 292 293 294 294 294 296 298 300 299 301 302 303 312 327 328 329 334 334 328 335 325 330 327 332 335 337 339 341 343 343 342 343 343 344 344 344 345 345 346 346 346 346 346 347 348 349 349 349 349 348 349 349 349 349 348 348 348 348 347 347 347 347 347 346 348 347 348 348 349 348 347 346 345 345 345 343 345 344 344 344 343 343 342 342 342 342 342 342 343 344 344 343
302 303 295 294 292 291 294 294 294 293 297 299 301 300 297 299 303 314 333 332 329 328 331 332 331 337 331 332 336 337 338 340 341 341 340 339 339 340 342 343 342 343 343 345 346 345 346 347 347 347 349 349 348 348 348 348 348 349 349 349 348 348 348 347 346 346 346 345 344 343 344 349 350 348 346 348 345 347 344 343 344 344 343 342 341 341 342 341 341 341 341 340 340 342 344 344 344
303 298 296 293 294 293 296 295 297 296 297 299 300 299 299 298 301 303 320 329 328 329 328 332 335 335 337 337 338 338 339 339 339 337 336 335 337 337 337 339 339 338 341 344 345 345 345 345 346 347 347 348 348 347 347 348 349 349 351 350 349 348 347 346 347 348 346 346 343 346 349 349 349 349 348 345 346 345 344 343 343 342 341 342 342 341 340 340 341 341 340 339 338 339 341 346 345
300 296 296 293 295 296 298 298 298 297 298 299 300 300 298 300 299 303 308 322 325 324 327 330 328 333 335 336 336 337 337 337 337 335 334 334 334 334 335 336 337 339 340 341 344 345 345 345 347 347 347 347 347 346 346 347 349 349 349 349 349 346 347 348 348 347 348 347 347 348 349 349 347 345 345 344 344 343 343 343 341 340 340 340 340 340 340 340 340 339 338 339 337 337 344 345 344
300 298 294 295 297 296 296 298 298 298 299 299 300 301 298 301 300 306 311 311 325 323 324 326 328 328 331 333 335 336 336 335 336 334 333 333 334 334 334 335 336 337 339 340 342 344 344 344 345 346 346 347 346 345 345 347 350 348 348 349 350 350 349 348 349 348 347 346 346 348 348 346 344 344 344 343 343 343 342 342 342 342 342 341 340 341 340 340 338 337 337 337 340 342 344 343 343
300 297 296 296 296 297 299 298 299 300 298 299 299 300 300 303 300 307 313 306 317 324 328 328 328 330 330 332 334 334 334 333 333 332 332 333 334 336 336 336 336 338 340 342 343 341 344 345 347 345 347 346 345 345 345 346 348 348 348 348 347 346 345 345 346 346 346 345 345 346 344 344 344 343 343 343 342 341 340 341 341 341 342 340 338 339 339 337 338 338 339 339 341 341 341 344 344
299 298 299 297 298 298 301 301 301 300 299 299 300 299 301 302 301 303 305 300 301 310 328 331 332 334 331 331 333 333 333 332 331 330 330 332 333 334 336 337 339 340 341 340 340 341 342 343 345 345 346 345 345 344 345 345 348 347 347 346 345 344 344 344 344 344 345 344 344 344 344 344 343 341 341 340 339 340 339 340 340 342 341 340 341 339 338 339 338 338 339 339 340 342 343 343 343
296 300 299 300 301 299 301 302 303 300 301 300 299 301 300 300 299 301 300 302 308 324 327 331 334 336 335 334 333 332 331 330 329 329 330 330 332 333 334 335 336 338 340 339 340 342 342 343 344 345 344 344 344 344 345 344 346 345 346 344 342 342 343 342 342 342 343 343 344 343 342 342 340 339 338 337 337 337 337 338 339 341 341 341 342 340 339 339 338 339 339 341 341 340 340 341 341
299 297 299 301 299 299 302 303 303 302 299 300 301 300 298 299 298 301 301 310 320 327 334 332 335 337 335 332 332 331 331 330 328 329 331 331 330 330 332 332 334 337 335 337 339 339 340 341 343 342 342 342 343 344 343 343 346 345 344 342 342 342 342 341 341 342 343 344 344 344 343 340 338 336 336 336 336 337 336 338 340 340 340 338 341 340 338 337 338 339 341 340 339 339 339 339 339
298 298 299 301 301 302 302 302 300 300 299 300 298 297 299 298 299 299 300 304 319 333 334 334 336 335 334 332 331 331 330 329 329 331 332 331 330 330 331 332 333 334 334 336 337 336 338 341 340 340 341 342 342 343 341 342 343 342 342 341 339 341 341 341 340 341 341 342 342 342 341 339 337 337 338 337 337 336 337 339 339 339 341 340 339 338 338 338 338 339 341 341 341 340 339 339 338
300 300 301 301 302 303 302 301 300 300 299 298 297 298 299 299 299 298 302 303 326 334 334 335 334 332 331 331 331 331 329 329 330 330 330 331 331 331 331 330 330 332 335 335 335 337 339 342 339 341 342 342 341 341 340 340 341 340 340 339 340 341 340 341 342 340 340 341 341 341 342 340 339 338 337 338 338 337 339 339 339 339 338 338 338 339 336 337 338 339 341 341 337 338 339 339 338
300 300 300 301 301 300 300 298 299 298 296 297 297 298 298 299 297 298 313 328 332 333 333 333 332 331 331 331 331 332 329 328 329 331 330 331 331 331 331 330 329 330 332 333 334 336 338 339 340 341 342 341 341 340 339 339 340 340 339 339 340 339 339 340 340 340 341 341 342 343 343 343 341 339 338 337 338 337 338 338 338 339 337 336 338 336 336 335 337 340 342 342 340 339 339 339 338
299 299 297 297 296 296 297 296 296 297 299 298 298 297 297 298 297 298 302 329 332 331 330 331 331 330 331 331 331 331 328 328 329 330 329 329 330 332 333 332 329 329 331 331 333 336 338 340 341 341 341 341 340 339 339 338 337 338 339 338 338 339 340 340 339 340 340 340 342 343 344 344 343 342 340 339 339 338 338 338 338 338 337 337 337 336 335 335 336 337 339 340 340 340 339 339 339
299 297 295 296 297 297 296 296 297 296 299 298 299 297 295 296 297 300 302 330 330 330 329 329 329 330 331 332 332 330 326 327 329 330 330 332 334 335 334 336 330 329 332 334 333 335 336 339 340 340 340 339 339 339 338 338 338 337 337 338 338 339 340 340 339 340 341 341 342 343 344 344 344 342 343 343 340 339 338 337 337 338 338 337 337 337 336 336 335 335 336 339 338 339 338 337 337
297 297 295 294 295 295 296 296 295 295 298 296 298 291 295 297 299 300 303 329 329 327 327 328 329 330 332 333 331 327 327 327 329 332 333 334 334 334 334 336 333 333 333 334 336 334 337 339 339 339 339 339 338 338 339 337 338 338 338 338 338 339 340 339 340 340 341 341 342 342 342 343 343 343 341 342 340 339 338 338 338 338 338 338 337 337 337 338 336 335 336 337 336 337 334 335 335
296 295 295 292 292 292 296 295 296 296 296 295 299 292 295 298 299 300 309 328 327 325 326 327 328 329 330 331 330 326 326 327 329 333 334 335 334 334 335 338 334 334 334 335 335 335 336 337 337 336 336 336 336 338 337 338 338 337 337 338 339 340 340 340 340 340 341 342 342 341 342 341 343 342 342 341 340 339 338 338 339 338 338 338 336 336 338 338 338 336 336 335 336 334 334 334 333
294 293 291 291 290 293 295 297 296 295 297 298 297 293 294 297 299 298 318 327 327 325 325 326 327 329 330 331 328 326 326 328 329 331 334 335 333 332 334 335 335 334 334 335 336 337 336 337 337 335 335 334 336 338 338 339 338 338 338 338 339 340 340 339 339 340 341 341 341 341 341 341 341 342 342 342 340 339 339 338 338 337 338 337 335 336 338 337 337 335 335 335 331 332 332 331 333
292 292 292 290 290 291 292 295 294 295 295 298 296 292 295 297 297 301 318 326 326 325 325 326 326 327 329 330 328 326 326 327 327 329 332 334 333 333 333 335 335 334 334 335 335 336 336 335 334 333 333 334 335 337 337 338 339 338 338 338 338 340 339 338 338 340 339 340 341 340 341 341 340 340 341 341 342 340 339 338 337 338 338 337 335 336 337 337 337 333 334 335 334 331 331 330 331
291 291 291 291 290 291 290 296 296 296 297 295 297 294 295 298 299 301 313 325 325 323 324 325 326 327 329 330 328 326 326 326 326 328 331 333 333 334 335 335 335 335 335 336 337 336 335 334 333 333 334 335 337 337 336 337 337 338 338 338 339 337 338 339 339 339 339 339 339 339 340 340 340 340 340 340 341 340 341 339 338 337 337 336 335 337 336 337 338 335 332 333 333 332 330 329 329
290 291 290 291 290 290 290 290 294 296 296 295 294 295 295 298 299 297 303 320 324 323 324 325 325 326 328 328 328 326 326 326 328 329 332 333 334 334 335 336 335 334 334 336 337 337 337 334 334 333 332 334 334 336 335 337 337 337 339 337 337 337 338 338 339 339 338 338 338 339 339 340 339 340 340 340 341 340 339 339 337 335 336 335 334 334 335 335 335 335 333 331 333 333 331 331 331
290 290 290 290 289 291 290 292 296 295 295 294 295 293 295 297 299 299 299 302 321 323 325 325 325 326 328 328 328 326 326 328 332 332 333 333 334 334 334 334 335 334 334 335 336 336 335 335 334 333 334 334 334 336 337 335 335 333 334 336 335 336 336 336 338 337 338 337 338 339 339 339 339 339 338 339 340 339 338 338 337 335 334 335 333 332 333 335 335 333 333 331 330 330 332 331 331
291 291 291 290 290 291 291 292 296 297 294 294 295 296 295 297 298 300 301 300 310 322 322 323 324 326 326 327 327 327 327 329 332 333 332 333 334 334 334 333 333 333 332 333 334 335 335 333 332 332 334 335 334 333 334 334 331 331 333 334 333 335 336 337 337 338 338 337 338 339 339 339 340 339 339 339 338 337 338 338 336 334 333 335 334 332 334 336 336 334 333 333 330 328 329 331 331
292 292 290 291 291 291 292 293 296 295 293 293 295 294 295 297 300 301 302 299 300 312 320 322 324 325 326 326 326 327 327 330 331 331 332 333 332 332 333 332 331 329 330 331 332 334 335 335 333 333 334 337 338 334 334 334 334 333 331 334 334 335 336 335 334 335 336 337 338 339 339 338 339 339 339 339 337 338 337 336 337 335 334 335 334 333 333 333 334 333 333 330 331 330 328 332 331
292 292 292 290 292 292 294 292 294 295 293 293 294 293 295 297 299 301 301 300 302 308 320 322 323 324 325 326 327 327 328 327 328 330 332 332 332 332 331 331 330 331 330 331 333 333 334 335 335 332 335 335 336 336 335 334 335 335 336 336 336 335 338 339 337 337 337 337 338 338 338 338 338 338 338 337 336 336 336 336 336 337 336 334 332 331 332 332 333 333 333 330 328 331 330 331 331
292 291 290 289 291 289 289 294 294 296 294 293 294 293 295 298 300 300 302 301 302 303 312 321 325 325 325 326 326 326 326 327 327 328 330 332 332 331 330 329 329 330 330 331 332 332 333 334 335 333 333 335 337 336 334 335 335 337 338 338 338 337 335 337 338 337 337 336 335 336 337 337 336 336 337 336 336 336 336 335 335 336 334 336 334 332 332 331 332 333 334 333 331 326 327 328 331
293 292 291 291 289 291 291 292 294 295 296 295 293 293 294 297 297 299 299 299 298 299 299 307 322 326 327 329 329 329 327 327 327 328 330 331 331 330 328 328 329 329 329 330 331 331 332 333 334 332 331 333 335 335 333 335 335 335 336 337 336 335 336 335 333 332 334 335 334 335 335 336 336 335 336 336 336 336 336 336 335 335 334 334 336 333 332 332 332 333 333 333 333 329 326 329 330
292 294 292 292 293 292 292 292 291 291 291 295 293 289 290 295 294 296 299 302 305 301 299 301 309 322 326 326 326 328 328 329 328 328 329 330 331 330 328 327 328 329 329 331 332 332 333 334 333 331 330 331 332 334 334 334 333 332 332 330 329 330 329 330 330 329 330 333 333 335 335 335 335 335 336 336 336 335 335 335 335 334 332 333 334 333 333 332 333 332 334 335 334 335 332 328 328
289 291 294 294 293 292 291 290 291 287 286 293 294 288 286 296 295 297 299 301 304 304 302 303 307 315 324 325 326 327 327 327 329 329 330 330 331 329 327 327 327 328 329 332 333 333 334 334 333 331 330 332 334 334 333 333 332 333 333 332 332 332 330 331 334 334 334 334 334 333 333 334 335 335 335 335 335 335 335 335 335 335 334 333 331 333 332 333 333 332 334 335 335 335 335 330 329
289 295 293 293 292 291 291 291 291 290 294 295 292 292 288 289 295 297 300 302 304 303 303 306 310 315 320 323 325 327 327 328 328 328 329 330 330 328 327 327 328 328 330 331 332 333 332 334 332 330 331 333 334 332 332 332 331 333 334 334 334 333 333 332 334 333 333 332 332 332 333 334 334 335 335 335 335 335 335 334 335 335 334 334 333 333 333 332 334 334 335 335 335 334 335 332 331
292 293 292 293 293 293 292 291 291 291 290 288 292 292 288 289 294 296 301 299 302 303 306 307 309 315 319 322 323 324 326 328 328 327 328 329 329 328 328 327 329 330 330 330 331 332 333 334 331 329 330 332 331 331 332 332 334 335 334 333 332 334 335 334 333 333 332 332 331 331 333 333 333 334 335 334 334 335 334 334 334 334 334 333 333 333 334 333 333 334 333 333 333 333 333 336 334
295 293 293 293 292 291 292 291 290 290 288 285 291 292 287 288 295 297 301 300 302 303 306 308 309 312 316 319 322 324 325 327 328 328 328 330 330 328 328 328 328 329 330 331 331 332 333 333 330 328 329 330 330 332 334 334 335 334 333 334 333 333 333 332 333 332 332 332 330 330 332 332 332 331 332 333 333 334 334 334 334 334 334 334 333 334 334 334 334 334 334 334 335 333 334 334 334
293 294 293 292 292 292 292 292 291 289 283 287 292 292 290 285 292 296 299 302 301 303 306 310 312 313 315 318 320 322 323 324 325 326 327 329 329 327 327 326 327 328 330 330 330 331 331 331 329 328 330 330 330 331 333 333 333 334 333 334 334 333 333 333 332 331 331 332 330 330 331 331 332 332 332 332 333 333 333 333 333 334 335 334 333 334 335 335 335 335 334 334 334 333 333 334 333
294 293 291 291 290 291 290 289 291 284 283 290 289 290 290 284 290 296 300 304 307 307 306 308 311 312 315 318 319 322 322 323 323 323 324 325 324 325 326 325 325 327 328 328 329 330 331 330 330 329 330 330 331 332 333 332 332 332 334 334 334 334 334 334 333 332 333 333 331 331 331 332 332 332 333 332 332 332 332 332 332 332 332 333 333 334 335 335 335 334 334 333 333 334 333 333 332
292 292 291 287 285 285 282 286 281 283 283 288 288 289 288 287 293 299 302 306 308 310 309 310 311 312 315 317 320 322 322 323 322 322 323 323 322 323 324 324 324 325 326 328 328 329 330 329 329 328 328 330 331 331 331 330 331 331 332 333 334 335 336 335 335 334 334 333 332 330 329 330 330 331 332 332 333 332 332 332 331 332 333 333 334 334 335 334 334 334 334 333 333 333 333 333 331
290 289 289 285 282 280 275 282 282 284 288 288 287 291 287 292 295 302 305 308 310 311 312 313 313 314 316 318 321 321 322 322 322 322 321 320 320 320 322 322 324 325 326 327 328 327 328 328 328 328 328 330 330 330 329 328 329 332 334 333 334 335 336 336 335 334 333 332 332 332 332 332 331 332 332 333 333 333 333 334 333 333 333 333 333 334 334 334 335 333 334 332 332 335 334 334 333
291 293 291 289 288 283 277 282 279 282 286 288 290 287 286 288 295 303 307 310 312 312 313 314 316 317 319 320 321 321 322 322 322 318 317 318 319 320 321 322 324 324 325 326 327 327 327 326 328 327 326 329 329 328 327 327 328 329 332 334 334 335 335 335 334 334 333 332 332 332 332 331 331 331 331 332 330 332 332 332 333 333 331 331 332 333 333 334 335 334 335 336 335 334 333 333 332
291 292 293 289 287 293 286 286 287 286 286 285 286 286 293 294 300 305 310 311 311 312 312 313 314 316 318 319 319 320 321 321 319 318 319 319 320 321 322 323 323 324 325 325 326 326 326 326 327 326 326 327 328 327 327 328 327 328 330 333 334 334 334 335 333 332 333 333 332 331 330 330 331 330 330 330 329 330 330 330 331 332 332 332 332 333 333 333 334 334 334 335 334 331 333 332 332
291 290 288 291 296 294 285 283 285 283 284 283 288 291 294 300 299 305 308 308 308 311 311 312 312 314 316 314 314 316 319 316 317 318 319 320 321 322 323 323 323 323 324 324 324 326 326 326 325 326 327 328 328 328 327 327 328 328 329 332 332 332 332 333 331 331 331 332 332 332 330 329 329 331 331 331 329 329 331 332 332 332 332 333 334 334 334 334 333 333 334 334 334 333 333 331 332
291 288 292 293 294 296 290 284 283 284 281 282 289 288 292 291 289 303 306 305 306 307 309 311 312 313 313 313 314 316 317 318 319 318 319 321 322 322 323 323 324 324 324 323 324 325 325 325 326 326 327 328 328 328 328 328 328 329 330 331 330 331 332 332 331 330 330 330 329 330 330 328 330 331 330 330 331 330 330 330 332 332 332 333 333 333 333 333 333 332 333 333 334 333 332 332 332
294 292 296 291 286 286 289 287 279 279 278 282 287 287 290 293 294 298 301 302 304 306 308 309 310 310 311 313 314 316 317 318 319 319 320 321 322 322 323 323 324 324 324 324 323 324 324 326 327 328 328 329 329 329 329 329 329 328 328 329 329 329 330 330 330 330 330 329 328 328 329 330 330 329 329 329 329 329 330 330 332 331 331 331 332 332 332 332 332 331 331 330 330 332 331 331 331
294 294 293 294 293 292 287 287 289 287 280 280 282 287 286 295 297 298 300 303 304 305 306 307 309 310 311 311 314 316 316 318 319 319 320 321 323 323 323 323 322 322 322 322 323 324 325 326 326 327 328 328 327 327 328 328 328 327 328 328 328 328 328 328 328 328 328 328 327 328 328 329 329 328 329 329 329 328 329 329 329 329 329 330 330 329 330 330 331 331 330 329 328 329 329 330 328
291 292 291 292 294 293 293 291 288 286 283 283 283 282 290 295 298 299 300 303 305 306 306 307 307 309 311 312 312 314 316 316 318 320 321 321 322 323 323 324 323 322 322 323 324 325 326 325 325 325 325 325 326 327 328 327 326 326 326 326 326 327 327 327 326 327 328 328 328 327 327 328 327 327 327 327 328 329 328 329 327 327 328 328 328 328 328 329 329 328 328 327 325 326 325 325 325
292 292 291 292 290 289 285 284 289 289 288 282 282 281 292 295 302 303 303 305 305 307 306 302 302 302 302 303 303 305 308 310 315 320 321 321 321 321 322 322 322 321 323 324 324 325 325 325 325 325 324 324 325 325 326 325 326 327 326 326 326 327 326 326 326 327 327 326 327 327 327 326 327 327 327 326 327 328 328 327 326 326 326 325 325 325 325 327 327 326 325 324 324 322 322 321 323
Wind_Speed
1 1 0 0 0 2 2 2 4 1 1 2 3 4 1 3 3 5 2 3 3 3 0 2 1 4 7 3 6 4 2 4 1 5 1 3 5 10 12 17 18 18 17 16 15 16 17 17 19 20 20 20 20 19 19 20 20 18 19 16 15 15 15 16 17 17 16 15 16 17 17 18 18 17 16 16 17 17 15 18 20 20 19 19 19 18 18 19 19 19 18 18 18 17 16 16 16
1 1 1 1 0 1 3 2 2 1 1 0 7 1 4 2 2 4 5 4 2 3 5 7 4 3 2 1 1 1 3 5 3 3 1 5 10 10 14 18 18 19 16 15 14 15 16 17 19 20 21 21 20 20 19 19 18 19 18 16 16 16 16 16 17 18 18 17 17 17 18 18 18 18 17 16 15 15 15 17 19 21 20 19 19 18 19 19 18 18 17 17 17 16 16 16 16
1 2 1 1 1 2 4 1 2 1 2 4 3 5 4 4 4 3 4 4 5 7 9 10 6 5 5 3 6 2 1 3 4 4 5 11 13 10 15 17 16 18 17 14 15 14 13 17 18 20 22 21 21 20 19 18 18 18 17 17 18 17 17 16 16 17 17 17 18 18 18 17 17 17 18 16 14 12 12 14 19 20 19 19 19 19 18 18 17 17 16 16 15 16 15 15 15
2 1 2 1 3 2 3 1 2 3 2 2 5 2 4 4 6 6 2 5 8 9 7 5 3 2 3 5 2 1 2 1 1 6 6 11 9 13 15 16 16 15 14 12 14 14 13 17 18 21 22 21 21 21 21 20 19 18 18 17 16 16 15 15 16 16 16 16 16 15 15 16 16 17 17 17 13 12 13 12 14 17 18 18 17 17 17 17 16 16 15 15 14 14 14 14 13
3 1 1 1 2 3 2 2 1 2 7 4 1 1 4 4 3 3 6 7 10 12 9 3 3 3 4 4 2 1 3 3 4 4 7 7 11 14 14 16 15 16 14 15 15 15 16 20 19 20 21 23 22 21 21 20 19 18 18 16 15 14 13 14 12 14 16 16 17 16 16 16 16 18 19 18 15 13 13 13 11 12 13 14 15 14 15 15 16 15 15 14 13 13 13 12 12
1 1 1 1 1 2 3 3 3 6 3 2 4 1 1 1 3 6 12 10 10 11 8 6 3 3 1 4 2 2 3 2 4 4 7 9 14 16 17 15 15 15 15 14 14 14 16 18 18 19 20 22 22 21 20 20 20 19 18 16 15 15 14 13 12 12 13 14 17 18 17 16 17 17 16 15 13 14 14 13 12 10 10 11 14 15 15 15 14 14 13 13 12 11 10 10 10
2 3 1 2 3 1 2 3 4 6 5 5 6 7 8 4 4 7 13 12 3 5 1 3 3 5 3 4 4 4 4 3 6 6 5 13 15 16 15 14 16 16 16 14 13 14 19 17 17 19 20 22 22 21 20 20 20 19 18 17 16 16 14 14 14 13 14 15 14 17 18 17 16 15 15 14 14 14 14 14 14 12 10 10 13 14 14 13 13 13 12 11 10 9 8 8 8
1 3 1 3 2 1 2 2 6 3 2 7 2 6 6 9 9 8 11 6 4 3 2 1 3 5 3 1 2 5 6 2 7 9 11 14 15 15 15 14 16 15 15 14 13 13 18 16 17 18 20 20 21 20 20 20 19 17 17 16 16 15 14 13 13 14 14 16 15 15 15 15 14 14 14 13 15 15 15 15 14 13 11 12 12 13 14 13 13 13 12 9 9 8 8 8 8
1 2 0 2 2 2 1 4 4 2 7 6 9 7 9 10 10 9 10 8 9 7 9 10 6 6 4 5 4 3 4 6 10 13 14 15 16 16 12 14 16 15 14 13 13 14 16 15 15 17 19 20 20 20 19 20 19 17 17 16 14 12 11 13 14 14 12 13 14 14 14 13 14 14 14 15 16 15 15 15 15 14 12 13 13 14 14 14 13 13 12 10 9 8 8 9 9
2 2 3 1 1 3 2 3 3 1 4 2 7 9 9 7 8 6 11 12 9 6 8 3 4 4 7 5 5 3 3 7 12 14 13 15 15 14 14 15 16 18 14 13 13 14 13 15 14 16 17 18 19 18 18 17 17 17 16 15 13 12 11 12 13 13 12 13 13 13 13 12 12 12 13 16 15 14 14 15 15 14 12 12 13 13 13 13 13 13 13 12 10 9 9 10 11
2 2 2 2 1 2 5 4 4 4 4 6 8 5 5 5 5 8 9 12 9 7 1 7 7 6 5 4 3 0 3 9 12 14 14 14 14 14 13 14 15 16 16 15 13 12 13 14 16 15 16 17 16 16 15 15 14 14 14 13 12 12 12 11 12 14 13 13 14 13 12 12 12 12 14 15 15 13 13 13 14 14 13 12 12 11 12 11 11 12 13 12 10 9 9 9 11
2 1 1 2 3 4 2 5 4 5 8 3 4 1 2 6 5 8 11 9 6 3 6 9 5 8 6 5 3 4 5 8 11 13 14 14 12 13 13 12 14 13 15 16 14 12 13 13 13 16 16 15 16 16 15 15 14 13 13 13 13 12 12 11 12 12 13 12 12 12 12 11 12 13 12 14 13 13 12 13 13 14 13 12 12 12 12 11 10 11 12 12 11 9 10 10 11
1 0 3 2 2 2 1 3 4 5 7 2 1 3 3 5 8 10 8 6 4 3 3 9 6 2 5 3 4 5 7 8 10 12 13 12 12 12 12 12 14 14 14 15 15 14 14 13 12 14 15 17 15 15 15 14 14 13 14 13 13 12 12 12 13 13 13 12 11 11 11 11 11 12 12 12 12 12 12 12 12 13 15 13 12 12 11 11 11 11 11 12 11 9 9 11 12
3 2 4 3 2 1 1 2 1 5 3 2 1 5 2 5 7 7 6 6 4 1 4 4 6 5 5 5 3 5 7 9 11 12 10 12 11 12 14 12 14 13 13 14 15 15 13 13 12 12 14 13 13 14 14 14 13 13 13 13 12 12 12 13 12 12 12 12 12 12 12 12 12 12 12 12 11 11 11 11 12 14 13 14 12 12 11 11 11 10 10 11 11 9 10 11 12
2 1 1 1 2 1 2 4 2 3 1 1 3 8 10 0 6 7 5 6 3 3 3 2 2 4 4 8 6 9 11 13 13 12 12 12 13 13 14 12 13 12 12 13 14 15 14 13 12 12 12 12 13 11 11 13 15 13 12 13 13 13 13 13 13 12 13 12 13 13 14 13 12 12 12 13 12 11 11 12 12 13 13 13 12 11 11 11 11 9 9 10 11 10 9 10 12
2 2 1 3 3 3 3 4 1 3 1 1 2 4 12 2 3 7 5 4 2 3 1 4 1 2 2 11 3 13 15 15 14 12 13 15 13 12 12 12 12 12 10 12 13 12 13 12 12 12 11 12 10 10 11 12 14 15 14 13 13 14 14 14 12 13 14 14 14 13 12 12 11 10 12 11 12 11 12 11 13 13 13 12 12 11 11 10 10 8 8 9 9 9 10 10 11
2 1 3 1 7 5 3 4 5 3 3 3 4 9 8 12 7 1 2 1 4 2 4 3 3 3 4 4 7 16 17 15 15 15 13 13 12 10 10 9 10 10 10 12 12 12 12 12 13 11 12 12 11 11 10 11 11 14 13 14 15 14 14 14 14 14 12 13 12 8 8 8 8 8 9 9 12 10 11 13 13 13 12 11 11 10 10 9 9 8 8 8 8 7 9 10 10
2 4 2 6 2 5 4 6 5 3 5 8 10 7 9 12 11 5 3 3 4 3 3 2 3 2 1 6 12 16 17 18 17 17 14 14 12 11 11 11 11 11 11 10 11 12 11 12 13 12 11 12 11 9 8 8 10 10 10 10 10 12 13 14 12 10 9 9 11 9 7 7 7 7 8 10 8 10 11 13 13 12 11 11 11 11 9 8 8 8 7 8 7 6 5 7 9
2 2 3 9 3 1 3 1 2 3 8 11 8 5 4 9 5 3 6 1 2 2 1 0 2 4 8 11 14 17 17 16 17 15 16 17 14 15 14 12 13 13 12 11 10 12 11 10 11 12 11 12 13 10 8 9 10 8 10 9 8 11 10 11 10 10 9 10 9 7 6 6 7 8 7 7 8 11 11 12 12 11 11 11 11 10 8 8 8 8 7 7 8 5 4 6 8
1 3 8 3 2 1 3 4 4 4 6 9 10 8 5 9 2 3 4 6 4 6 3 2 5 5 8 11 15 16 16 16 15 14 15 15 14 14 14 14 13 13 13 11 10 9 10 10 12 11 12 13 12 9 8 9 8 7 7 7 7 8 9 8 9 9 8 8 7 6 6 7 8 8 11 13 12 9 9 11 11 11 11 9 8 7 8 8 9 8 7 6 5 4 4 6 7
3 4 6 2 3 2 2 4 6 7 2 6 8 8 11 2 4 3 4 7 4 5 7 7 9 10 11 13 15 15 16 16 14 12 12 13 12 9 10 10 10 11 11 10 10 10 11 11 11 12 13 12 11 9 9 9 8 7 7 7 7 7 8 9 7 8 8 9 9 7 8 8 8 8 8 7 7 7 7 6 5 4 4 6 5 6 4 5 3 5 5 3 4 4 5 5 6
3 7 5 6 2 3 3 7 7 4 1 4 7 10 9 9 3 3 5 5 6 3 5 10 6 11 14 16 16 15 16 15 13 11 10 10 9 8 7 6 8 8 8 9 10 10 11 12 12 11 11 11 10 8 8 9 9 7 7 7 7 7 8 8 8 7 7 8 8 8 9 8 8 8 8 7 7 6 6 5 4 4 5 5 3 5 5 4 4 4 4 4 3 4 4 5 5
6 6 3 4 5 7 2 5 5 2 5 7 8 4 6 6 11 4 5 8 4 2 2 8 10 11 12 14 15 15 15 13 12 12 11 10 8 7 6 4 5 5 4 7 8 7 10 12 12 10 10 9 11 10 8 9 7 7 7 7 7 7 7 8 8 8 8 9 9 9 9 8 8 7 7 7 7 6 6 5 5 4 4 4 3 4 4 4 3 3 3 4 3 4 5 5 6
7 4 3 1 2 4 5 9 7 7 1 7 4 6 7 7 12 2 6 7 6 5 6 8 9 10 12 14 14 13 13 13 15 14 12 11 11 9 7 4 3 1 5 7 8 9 9 12 12 11 7 10 10 10 9 9 6 7 8 8 7 7 7 7 7 7 8 8 8 8 8 8 7 7 7 7 6 6 6 6 5 4 5 5 3 3 3 3 3 2 3 4 5 5 6 6 6
10 8 1 5 3 4 5 6 7 7 7 6 6 6 7 2 7 6 10 5 2 1 4 7 10 11 12 14 14 14 14 14 15 13 11 10 11 12 11 5 2 2 5 7 7 8 8 10 10 10 10 12 10 9 9 8 7 9 8 8 7 8 7 6 7 8 8 7 8 8 8 8 6 5 6 6 6 6 6 6 5 4 3 4 4 4 3 2 2 2 2 3 4 5 5 5 6
6 9 5 8 8 5 3 7 9 9 3 3 4 10 5 6 2 6 9 4 1 3 6 9 11 12 13 14 14 14 13 15 16 15 14 12 12 11 8 7 4 2 4 6 7 4 6 9 11 12 13 11 10 11 8 10 8 9 9 8 7 8 6 7 8 7 7 8 7 7 7 6 5 5 5 5 6 6 6 5 5 5 4 3 3 4 3 2 2 2 2 4 5 5 6 5 5
3 2 5 7 7 4 4 6 6 1 4 5 7 10 5 2 2 5 3 0 5 6 8 9 11 13 13 13 13 12 13 16 17 15 14 12 13 13 11 11 11 6 3 2 7 9 7 11 11 13 12 12 10 10 10 8 8 8 8 8 8 7 7 7 7 7 7 7 7 7 6 5 5 5 5 6 5 6 5 5 4 4 4 3 3 4 4 3 2 2 2 3 4 4 5 5 5
2 2 3 5 4 4 6 5 9 3 6 7 8 6 3 2 0 7 4 3 6 8 9 10 10 12 12 14 14 11 12 13 14 16 19 19 15 12 12 10 15 15 11 12 13 9 10 15 16 15 14 13 11 12 11 8 9 9 9 8 8 8 8 7 7 7 7 6 7 6 6 4 4 4 5 5 6 6 5 5 4 4 4 4 4 4 4 4 4 3 3 3 4 4 5 5 6
3 2 7 3 5 5 2 4 2 2 7 6 5 4 4 2 7 1 4 4 5 6 9 11 11 11 13 13 13 11 12 13 14 15 18 15 13 13 17 16 17 20 20 20 16 16 20 18 15 17 16 15 13 12 11 9 9 9 8 8 7 8 8 7 8 7 7 7 7 6 5 5 4 4 3 5 5 5 5 5 4 4 4 4 4 5 5 5 5 5 5 3 4 5 6 6 6
3 2 1 5 4 6 1 2 2 3 4 4 5 8 2 5 8 7 3 6 7 6 8 10 10 11 12 13 13 11 12 11 11 12 13 12 13 15 17 12 4 8 3 8 12 5 3 5 5 7 9 11 11 11 9 9 9 8 8 7 7 8 7 8 7 7 7 7 7 7 6 5 4 4 5 4 4 5 4 4 5 5 5 5 4 4 3 3 5 6 5 4 5 5 6 6 6
3 1 1 1 3 2 1 2 1 4 1 1 5 7 5 4 4 5 1 7 9 8 8 10 11 11 12 13 12 11 13 10 12 13 13 12 12 11 15 6 2 5 7 5 8 8 9 8 7 7 9 9 8 7 10 9 9 8 8 8 8 8 8 7 7 7 7 6 6 6 6 6 4 5 5 5 4 4 4 5 5 4 5 5 4 3 2 3 5 5 4 4 5 6 6 6 6
2 2 4 1 4 1 9 4 1 4 3 5 6 4 5 4 4 5 2 7 9 7 9 10 11 12 13 13 12 12 12 12 14 14 13 10 12 10 11 6 6 8 10 8 8 9 11 9 9 7 9 9 10 9 7 7 9 9 8 8 8 8 7 8 7 7 6 6 6 6 6 6 6 5 4 4 4 4 4 4 4 4 6 5 4 3 2 3 4 6 5 5 7 6 7 7 6
3 3 3 3 1 2 4 3 1 1 2 5 3 3 3 2 2 3 4 7 9 8 8 10 11 13 14 12 10 12 12 13 12 13 12 9 10 10 9 7 8 10 11 11 11 11 11 12 9 8 10 12 10 10 8 6 6 8 8 8 9 8 8 7 7 6 6 6 6 6 6 5 5 5 4 3 3 4 3 3 3 5 5 5 4 3 3 3 4 6 5 4 5 6 7 8 7
2 1 3 1 6 1 3 3 3 7 5 3 5 4 5 10 2 1 5 8 9 9 9 10 10 11 13 12 10 12 13 14 14 15 13 10 9 11 8 7 8 10 9 10 11 12 13 10 10 8 4 5 7 5 7 7 6 6 7 7 8 9 9 7 6 5 6 6 6 5 6 6 5 6 5 4 3 2 2 4 4 4 5 5 4 3 3 3 3 6 6 4 5 6 6 7 7
3 3 4 3 2 4 4 2 1 9 1 6 1 5 9 10 7 4 6 8 10 11 10 10 11 12 13 13 12 13 13 16 17 14 13 11 8 9 8 9 9 11 9 11 11 12 11 11 9 9 8 7 8 7 9 8 8 6 6 8 8 8 6 5 5 5 5 6 5 6 6 5 5 5 5 5 4 3 3 4 5 5 4 5 5 4 4 3 4 5 6 6 5 5 6 7 7
3 2 1 3 6 2 2 2 7 3 9 10 9 8 8 10 10 4 6 7 11 12 9 9 11 12 14 14 13 12 14 17 15 14 13 10 8 8 8 10 10 11 11 10 10 11 11 12 10 10 10 10 8 8 6 8 7 7 7 7 8 7 7 7 6 6 6 6 6 7 6 5 5 5 5 5 4 4 4 4 5 5 5 5 6 6 4 4 6 7 6 7 8 7 6 7 8
4 1 2 5 6 5 2 4 7 5 6 9 10 7 6 10 10 9 5 3 8 9 9 11 12 13 14 15 14 14 15 17 13 12 12 11 9 8 8 10 9 10 12 11 11 12 12 10 12 15 10 10 8 9 9 8 9 8 7 8 9 8 8 8 7 6 6 5 7 6 6 5 5 5 5 5 5 4 4 4 5 6 5 4 5 6 5 5 5 7 7 6 8 9 8 8 8
4 3 4 7 3 7 2 7 3 1 4 4 1 4 9 11 10 10 2 4 10 11 12 14 15 15 14 17 16 17 14 9 9 9 11 10 11 11 10 10 10 12 12 12 13 12 13 12 13 13 13 9 7 9 7 9 7 8 8 8 7 8 8 7 7 6 6 6 6 6 6 5 4 4 4 4 5 5 5 5 5 7 7 5 5 5 6 5 5 7 7 7 6 8 8 8 9
3 4 3 5 6 2 6 5 4 1 4 8 1 5 8 13 13 11 6 9 9 11 14 16 16 17 15 16 17 17 15 13 11 11 12 13 14 13 12 11 11 12 13 14 13 13 14 13 12 12 11 10 9 8 8 7 7 8 8 8 9 7 6 6 6 6 6 6 6 6 6 6 5 4 4 4 5 4 5 5 5 5 6 6 6 6 7 7 6 8 9 8 7 6 7 7 6
4 3 5 9 1 4 4 4 2 4 2 7 7 10 11 12 10 11 8 7 7 2 8 12 14 17 17 18 19 18 20 18 17 19 18 16 14 12 12 11 11 12 11 12 13 14 12 11 11 12 10 10 8 9 8 7 8 9 8 9 8 7 7 7 6 6 6 6 6 5 5 6 5 4 5 5 4 4 5 5 5 5 6 6 6 7 7 7 7 7 7 8 9 9 8 6 2
3 5 6 8 2 6 8 4 2 4 6 5 7 6 9 7 8 4 3 0 4 7 7 10 14 16 17 15 15 17 21 22 20 18 18 17 15 13 12 11 11 11 11 12 12 12 9 12 11 12 10 10 9 11 10 7 7 8 7 8 8 8 8 7 6 5 5 6 5 5 6 6 6 5 5 5 4 4 4 5 5 5 5 5 6 7 7 8 9 8 8 8 9 10 9 7 4
3 6 9 10 11 11 9 3 5 4 4 2 2 3 5 1 3 5 2 2 3 2 8 14 17 18 17 15 17 18 18 17 18 20 21 18 15 12 11 12 12 11 11 11 10 9 10 12 12 12 9 9 11 12 11 10 9 9 10 9 9 8 8 7 7 7 6 6 6 5 6 6 6 6 5 5 4 4 5 5 6 6 6 5 5 6 6 7 7 8 8 7 8 7 8 9 7
2 4 10 14 11 8 3 4 2 4 4 3 1 4 3 1 6 3 2 5 7 3 7 10 11 14 15 14 13 16 18 18 17 18 17 17 13 12 11 11 11 10 9 9 9 12 13 11 12 14 13 8 9 10 9 7 10 10 11 10 10 9 9 7 7 6 6 5 5 6 6 6 6 6 6 6 5 5 5 6 6 6 6 6 4 5 6 7 6 7 6 6 6 5 6 6 8
4 2 6 5 5 7 8 7 7 5 3 5 3 5 6 8 2 2 4 5 7 4 2 5 7 10 14 14 13 13 13 15 15 18 18 16 14 12 11 11 10 10 10 10 12 12 14 12 12 13 10 9 9 7 10 11 9 11 12 11 8 8 8 9 8 7 6 6 6 7 6 6 5 5 6 6 5 5 5 5 6 6 6 6 6 6 6 7 6 4 5 6 6 6 6 5 6
3 3 5 5 7 6 5 6 5 2 2 6 2 3 4 5 2 2 2 5 4 4 6 6 5 7 9 13 13 11 11 12 14 13 14 13 13 10 9 9 10 11 11 11 12 13 12 12 11 12 11 10 8 10 9 13 11 11 11 9 9 6 6 8 8 7 7 6 8 6 6 6 5 5 5 6 5 5 5 5 6 6 6 6 5 5 5 7 8 7 6 5 5 6 6 3 5
4 6 3 4 4 3 5 4 4 2 2 5 4 5 5 9 2 2 2 3 4 5 10 10 8 7 8 9 12 11 7 6 6 8 7 8 6 7 9 9 11 10 11 10 10 10 12 11 12 15 11 9 9 10 11 11 10 9 8 10 10 7 6 7 8 8 7 7 8 7 7 6 5 4 5 5 5 5 5 5 6 6 6 6 6 5 6 6 7 7 7 6 5 6 5 5 6
5 7 4 3 3 2 3 1 2 3 2 8 2 7 5 6 3 2 2 2 4 9 8 8 9 8 8 9 9 9 5 3 3 6 6 5 3 7 10 10 10 11 11 12 10 11 13 11 12 13 12 9 10 11 11 12 9 9 8 8 9 9 9 9 9 9 8 7 8 7 7 6 6 6 5 5 5 6 5 6 5 6 6 6 6 6 6 6 6 6 6 7 6 6 4 5 4
2 0 1 1 2 2 2 2 2 2 5 1 1 3 5 6 3 1 1 4 6 7 10 12 13 10 8 8 8 7 5 5 6 4 3 2 5 7 9 10 10 11 12 13 11 11 12 12 13 14 13 12 11 10 11 9 8 7 8 9 9 9 10 8 9 8 8 8 9 8 7 6 6 6 5 5 5 6 5 5 5 6 5 6 6 6 5 5 5 6 6 6 6 6 5 5 6
5 3 1 3 1 0 2 3 3 5 6 2 2 6 3 9 8 3 4 5 7 7 9 12 12 10 7 8 7 5 4 5 5 2 2 2 4 6 7 8 10 10 10 11 12 12 11 11 12 12 11 12 11 11 11 9 8 8 8 9 9 8 9 9 8 8 7 7 7 9 9 8 7 6 5 6 6 7 6 6 6 6 5 5 5 5 5 5 5 6 6 7 7 7 6 7 6
7 7 5 4 3 1 1 2 1 3 2 2 2 0 6 3 3 4 5 6 6 7 8 8 8 7 5 4 5 5 5 5 4 3 4 6 6 6 4 3 7 8 8 10 9 9 9 9 11 12 10 10 10 10 8 8 8 7 8 8 8 8 8 8 7 8 6 5 6 6 6 6 5 5 4 4 4 6 5 4 5 5 4 4 4 5 5 5 5 5 6 7 7 6 5 7 6
8 4 9 5 4 4 3 5 4 5 2 3 2 4 3 5 2 3 4 5 6 6 6 6 4 3 3 1 3 4 7 7 7 9 11 11 12 11 6 3 4 4 5 7 8 7 8 9 10 10 10 10 11 9 8 9 6 7 7 8 8 7 7 7 7 6 6 6 5 6 4 3 4 3 4 3 4 4 4 4 4 4 4 5 5 5 4 5 5 5 5 5 4 4 5 5 5
2 1 2 1 5 2 5 1 3 2 1 1 3 2 0 2 2 2 2 2 5 5 5 5 5 1 1 1 4 8 8 8 11 10 9 10 11 12 11 11 11 7 6 5 6 7 7 7 8 9 10 10 10 9 8 10 8 6 8 8 8 7 6 6 6 5 5 6 6 6 5 4 3 4 3 4 4 4 4 4 4 3 4 5 6 6 6 5 6 5 5 4 4 2 4 5 4
4 5 7 4 3 4 4 2 4 2 1 2 2 4 2 3 3 2 3 3 5 6 6 6 6 7 5 5 6 5 6 9 11 7 7 9 6 6 8 9 10 9 7 6 6 6 8 8 9 10 12 11 11 12 9 8 7 8 9 9 8 7 8 8 7 8 7 5 6 5 5 4 3 3 4 3 5 4 4 4 5 5 5 5 5 5 5 5 6 6 5 4 4 4 3 4 3
7 5 4 5 1 2 2 3 1 0 4 2 1 1 2 1 2 1 1 2 4 6 7 7 7 6 6 6 7 5 7 9 7 8 8 7 9 8 8 10 11 9 8 7 9 8 8 8 11 13 12 13 13 12 11 9 9 8 8 7 8 9 8 8 8 8 7 6 5 4 4 4 4 3 3 3 3 5 5 4 4 5 5 5 5 5 5 5 6 5 5 4 3 4 4 3 3
4 2 3 5 1 5 2 1 2 2 2 2 2 1 3 4 3 0 1 4 5 5 6 6 7 7 7 5 6 7 6 7 9 9 8 8 9 9 9 11 13 11 10 9 9 10 10 11 13 13 13 11 11 8 8 7 7 6 7 9 9 7 6 7 7 7 7 7 7 6 6 5 4 4 4 4 4 4 4 4 4 5 4 5 4 4 4 4 5 4 4 4 4 4 4 4 3
2 2 4 2 3 1 4 2 0 2 2 0 1 1 2 4 1 1 2 3 3 4 5 6 5 5 5 6 2 5 5 4 5 6 6 9 10 11 11 11 12 12 10 11 12 11 13 10 9 7 6 6 7 8 8 8 6 7 7 7 8 8 8 7 7 7 7 7 7 7 6 6 5 4 4 5 4 5 5 5 4 4 4 4 4 3 4 4 4 3 4 4 4 5 4 4 3
3 5 2 3 1 1 2 2 2 3 1 1 1 2 2 1 2 3 4 4 0 3 4 6 8 8 9 7 5 1 3 4 4 6 7 9 11 12 12 11 10 10 11 11 12 12 11 8 8 8 10 7 8 7 7 7 8 9 10 10 9 8 7 7 7 7 7 7 6 6 6 5 5 5 5 5 5 5 4 4 5 4 4 4 4 4 3 3 3 3 3 3 4 4 4 3 3
3 3 6 6 6 5 6 5 3 1 3 2 3 3 1 1 2 3 1 1 2 3 5 6 8 8 8 8 10 11 9 10 7 3 8 8 10 11 12 14 13 12 11 11 12 9 10 11 9 10 8 8 8 7 6 7 7 8 9 9 9 8 8 7 8 8 7 7 7 6 6 6 6 5 6 6 6 4 4 4 4 4 4 4 4 5 4 4 4 4 3 2 3 4 4 4 3
Wind_Direction
225 43 181 180 12 242 204 52 220 115 228 233 289 200 254 218 314 293 243 270 238 127 86 336 281 231 242 304 290 3 41 229 360 196 207 31 155 144 141 132 132 133 129 132 133 136 135 132 128 124 124 124 123 122 125 126 125 124 124 121 118 121 125 128 129 128 126 129 134 137 136 135 136 132 128 125 125 127 127 131 133 131 129 129 130 131 132 128 126 123 124 124 122 119 114 114 112
168 140 69 238 239 216 146 311 83 159 29 229 237 102 248 126 166 223 279 286 317 315 332 314 249 178 176 340 80 160 131 17 1 35 59 134 123 133 138 135 137 135 133 133 135 136 137 134 129 126 127 127 126 126 126 126 124 125 124 121 120 123 125 127 129 132 133 139 142 142 140 142 142 139 134 130 129 130 134 136 135 132 131 133 133 132 128 128 123 122 124 124 124 124 122 121 119
170 174 137 148 126 7 103 302 224 65 189 252 236 202 63 220 223 194 229 237 277 302 307 300 261 218 230 222 233 297 106 60 115 94 98 139 137 139 139 137 136 134 131 133 135 136 138 136 132 128 128 128 127 128 128 126 126 126 124 126 128 128 127 127 128 134 138 145 147 146 146 145 142 139 132 132 131 132 125 126 133 133 133 136 134 131 129 126 124 126 126 123 123 123 123 124 126
112 220 217 168 123 278 139 83 113 162 217 266 312 182 221 209 211 223 244 284 286 297 301 309 262 79 279 231 9 183 65 77 360 132 133 157 147 140 140 134 134 134 130 133 137 139 138 138 133 130 130 128 128 128 130 131 129 128 130 129 130 131 129 129 132 133 136 142 143 142 139 140 138 133 127 130 131 123 120 122 134 135 134 134 132 131 130 126 128 129 127 126 126 124 125 127 129
214 104 256 212 174 138 150 69 124 168 243 171 248 128 233 222 266 322 289 297 294 288 279 248 230 72 51 39 9 313 40 94 114 159 142 128 139 141 138 136 137 138 136 138 138 138 139 138 134 132 130 128 129 131 132 133 132 132 132 132 129 127 126 131 137 137 140 141 138 141 139 136 134 131 131 134 129 125 122 121 124 127 134 135 130 128 125 125 125 125 125 125 126 126 128 129 129
132 225 52 246 283 49 98 161 171 221 253 117 247 360 180 174 312 298 294 287 284 273 275 228 257 153 152 34 25 95 344 296 137 131 147 138 146 144 140 140 142 140 139 139 138 140 142 140 136 132 130 130 131 133 134 135 136 137 135 133 131 133 135 139 145 144 138 137 136 137 133 135 137 132 129 127 128 126 121 118 119 123 127 122 122 127 122 124 121 124 127 127 124 124 126 129 131
178 160 58 102 105 268 200 208 219 228 241 192 261 272 280 314 287 305 300 315 229 266 173 228 155 117 156 133 117 40 339 221 176 144 162 144 141 142 142 144 143 140 140 140 141 141 144 141 139 134 131 131 133 133 135 136 138 137 136 136 137 140 143 145 147 143 139 136 133 136 137 136 132 129 130 132 132 125 120 119 122 126 126 120 128 125 126 125 124 123 124 125 122 118 118 122 130
26 242 104 189 107 258 168 233 249 182 248 198 278 280 300 305 298 291 293 306 319 311 214 319 222 264 71 225 190 34 36 49 117 135 138 145 141 143 146 145 141 141 141 140 142 143 141 143 140 134 131 132 133 135 137 138 139 138 137 138 141 142 141 138 141 136 140 135 132 135 134 128 126 126 126 126 125 119 120 121 121 122 121 126 130 129 129 124 121 118 119 117 113 115 120 122 126
25 91 290 175 159 69 158 234 275 169 276 254 266 246 285 280 283 275 277 250 285 255 253 252 215 227 130 100 77 36 50 95 120 129 143 144 147 146 146 147 142 142 141 143 142 141 146 144 138 133 131 131 134 136 138 140 140 141 141 141 140 141 136 133 138 137 131 128 131 130 125 122 124 127 128 126 123 124 126 125 124 123 121 124 132 132 130 128 122 122 119 117 111 113 116 119 116
107 279 147 104 88 219 356 244 245 207 248 293 285 305 292 286 280 251 277 288 263 271 257 244 161 231 117 101 130 62 66 112 125 132 144 147 144 146 146 147 145 142 142 144 142 143 146 144 135 131 129 131 134 138 138 139 141 143 144 143 140 137 134 133 133 130 125 122 122 120 119 118 122 126 127 129 130 128 126 124 122 118 118 127 128 128 127 126 126 124 121 116 108 108 115 117 117
140 37 347 170 157 226 230 261 242 267 273 305 293 256 265 282 265 288 272 276 295 264 110 180 172 143 149 94 69 76 171 140 139 141 149 148 147 146 145 148 145 144 145 145 142 142 145 147 137 131 131 132 133 132 133 136 139 142 142 139 138 135 134 131 132 131 124 123 123 118 112 115 123 130 133 129 128 126 124 124 119 115 118 118 118 117 117 114 113 114 110 109 105 102 109 113 120
130 208 189 140 213 220 226 261 292 298 290 274 293 343 63 303 285 318 326 319 329 277 208 188 171 145 109 139 122 117 141 157 147 144 151 149 148 146 143 142 144 146 143 142 142 144 146 146 144 136 131 130 130 131 134 137 140 140 137 135 135 135 133 133 132 130 124 119 119 118 117 119 125 132 131 130 127 125 124 124 119 120 120 118 114 108 102 104 103 97 100 101 100 102 111 115 119
113 263 139 160 209 215 73 287 288 309 304 293 14 67 324 323 346 326 315 303 288 249 226 200 117 199 130 147 109 153 154 153 146 146 148 151 145 143 139 139 145 143 143 143 145 145 147 148 145 146 136 131 132 135 137 138 137 137 136 135 135 133 135 135 138 131 125 124 124 122 121 120 124 127 126 126 127 126 125 125 127 126 121 111 106 103 101 96 91 90 94 100 102 102 105 110 120
173 207 159 209 44 244 217 290 278 302 308 345 185 308 344 334 344 322 294 340 33 332 355 141 157 104 85 115 157 167 169 155 149 149 147 141 139 138 138 138 140 141 143 150 147 147 149 148 148 145 142 140 139 137 134 135 135 136 136 135 134 132 133 137 135 129 128 130 128 121 122 125 127 124 127 128 129 125 123 125 122 110 104 100 103 100 95 94 94 93 96 102 102 101 103 114 124
192 168 138 59 194 167 162 232 305 228 287 10 60 346 339 104 315 322 331 325 29 344 70 108 52 236 175 177 186 193 166 157 151 146 144 136 136 135 135 138 140 137 148 151 150 150 150 148 149 150 146 148 144 144 147 142 141 136 136 135 134 133 134 134 133 134 131 129 131 131 131 132 130 129 129 132 131 131 123 112 108 106 103 101 99 93 90 87 89 91 92 90 98 104 104 109 125
114 146 55 213 225 217 182 223 183 284 270 294 17 324 330 73 9 336 354 288 56 68 328 137 280 347 75 201 182 161 157 153 149 144 141 137 136 135 136 140 141 145 151 154 154 152 150 151 152 154 153 148 145 146 146 146 144 144 140 137 137 136 136 134 132 133 132 131 132 127 130 131 128 126 124 126 127 121 111 113 109 96 95 96 93 92 92 90 89 86 82 82 84 93 108 110 127
131 274 173 117 242 180 164 216 159 234 9 271 320 2 351 325 349 292 340 162 135 20 351 7 312 313 241 224 130 139 149 146 142 143 141 139 139 141 140 139 146 151 158 160 156 154 153 154 155 157 154 146 144 145 146 148 148 148 141 141 142 137 136 137 131 128 129 127 122 119 132 128 124 123 124 124 119 114 108 100 94 94 95 96 97 96 93 95 98 93 85 83 84 81 92 108 123
197 187 190 232 208 186 181 211 189 54 311 341 338 349 336 330 347 354 272 85 81 76 32 336 20 21 15 112 131 137 146 147 149 147 149 146 148 145 147 151 155 159 163 160 158 157 158 160 159 156 153 148 147 148 150 150 152 149 138 138 139 141 144 137 134 136 135 131 130 137 134 131 129 127 123 124 120 114 103 98 100 101 99 95 91 91 97 100 100 96 91 81 79 83 106 128 130
186 117 216 240 130 195 184 88 247 312 337 321 319 324 342 311 324 331 320 283 184 169 17 48 44 66 107 121 129 146 149 152 154 154 154 153 157 155 156 158 163 162 166 166 160 162 163 156 158 155 153 152 152 152 151 155 143 140 141 142 141 137 135 136 142 141 144 140 140 133 128 125 124 121 117 106 105 98 102 103 104 105 102 98 96 98 100 97 93 94 92 87 94 114 122 121 131
169 214 224 207 152 57 228 239 290 238 290 310 324 321 319 302 264 307 292 326 201 217 177 201 193 167 153 141 148 149 152 153 155 155 155 157 159 161 161 163 165 166 166 169 163 161 161 160 157 156 157 158 157 151 152 149 133 139 146 145 143 134 138 134 129 136 139 137 132 127 123 121 118 113 112 115 117 116 108 101 100 96 91 82 86 101 98 84 92 90 90 115 133 119 113 128 132
139 227 241 75 153 222 156 218 255 280 227 296 308 305 303 22 318 283 329 305 236 235 205 195 198 180 167 159 157 153 153 155 151 151 154 153 157 158 162 164 164 167 167 163 157 162 165 165 161 162 160 160 156 150 153 146 144 143 144 144 142 141 137 137 134 136 135 136 136 129 125 123 119 117 123 123 121 121 123 122 114 101 95 91 75 91 100 101 108 113 123 125 104 110 116 119 132
145 233 88 121 148 290 290 284 279 273 169 289 294 308 314 320 260 264 283 284 302 303 198 213 211 175 169 166 161 154 153 151 143 141 141 150 150 150 154 152 162 167 157 156 163 164 169 170 166 165 159 158 151 148 155 151 146 146 146 146 144 142 144 143 139 135 135 134 132 129 128 120 114 120 127 125 124 123 120 111 99 100 100 93 84 93 91 89 104 112 112 112 106 104 108 119 126
234 234 251 203 256 276 288 275 277 82 299 299 300 301 324 313 306 295 237 238 265 125 291 217 198 181 167 163 154 150 146 140 133 132 143 152 153 149 139 143 143 153 160 157 159 160 166 169 170 160 159 151 155 149 155 156 146 147 147 145 151 152 149 143 142 141 141 140 137 135 133 129 128 130 130 129 124 125 119 117 112 106 97 95 79 92 84 73 81 105 112 114 114 110 111 115 123
250 251 49 321 144 230 239 268 281 284 241 266 260 311 287 305 314 75 294 253 268 271 239 213 181 163 159 152 146 142 142 133 144 154 155 139 98 64 40 40 36 103 181 161 164 167 165 171 164 161 152 160 156 152 155 156 139 146 150 152 157 153 153 148 143 143 141 140 138 137 134 134 135 137 137 134 129 128 123 119 119 113 111 110 91 61 81 82 88 99 124 126 123 112 114 118 119
230 252 265 266 248 241 264 262 273 272 262 269 277 280 280 211 271 348 285 290 243 202 185 166 157 157 150 143 144 144 142 140 144 141 127 119 128 130 122 105 117 179 175 169 164 148 179 166 165 162 166 166 156 147 148 146 146 157 159 159 158 153 153 149 146 143 142 142 140 140 140 136 139 138 136 132 130 126 126 124 126 115 106 108 109 89 83 99 104 128 131 128 112 114 117 122 129
221 249 263 276 270 274 258 279 267 269 286 203 260 271 275 275 287 250 267 309 272 159 146 148 145 140 144 147 148 149 142 140 142 139 144 144 141 137 97 90 39 337 189 172 141 155 176 178 167 173 173 159 152 149 144 150 155 165 162 162 156 155 154 149 148 145 144 144 144 145 143 140 139 138 131 130 132 130 125 126 126 127 119 110 116 111 109 114 131 147 146 129 123 124 127 125 131
128 207 232 266 279 306 284 248 283 318 257 172 251 280 307 16 334 283 113 28 146 146 141 144 143 144 148 152 153 151 137 143 148 148 142 151 155 154 156 161 163 174 215 130 155 180 189 184 176 171 167 154 153 152 146 151 158 164 165 163 157 158 152 149 150 148 147 147 145 145 148 142 137 132 131 134 131 134 131 131 130 129 124 107 98 105 114 127 142 144 128 114 119 123 118 118 121
218 251 282 250 275 250 245 281 270 298 284 181 212 267 308 288 234 257 12 163 174 148 143 142 145 149 153 157 160 144 137 148 153 156 156 163 171 170 183 180 168 162 177 175 188 187 189 187 178 171 163 154 152 152 153 159 159 167 168 165 161 158 154 151 150 150 149 145 145 148 155 143 127 122 134 140 141 140 139 138 138 139 122 112 112 119 126 133 134 120 106 104 109 114 108 108 119
286 354 291 325 318 300 130 235 254 150 261 164 174 247 238 184 239 225 323 176 185 157 145 151 152 158 158 162 160 146 150 157 161 170 172 175 175 175 189 195 189 169 187 184 182 187 189 181 175 171 160 156 156 153 155 159 159 165 167 167 160 159 158 153 153 155 150 145 147 151 151 142 138 132 136 139 135 143 145 145 147 138 125 120 119 125 127 128 124 124 123 123 125 112 119 119 123
305 188 284 295 315 295 114 283 257 243 259 115 161 270 204 215 257 302 311 188 176 167 161 159 159 166 163 163 160 148 156 164 175 176 179 184 183 190 196 202 117 341 2 141 162 163 134 162 150 160 149 141 153 160 154 156 162 164 167 165 162 161 158 156 154 156 153 151 151 150 150 151 145 141 146 141 143 149 152 153 151 139 127 118 119 137 138 136 129 132 136 141 122 125 127 124 123
236 39 166 312 307 284 163 343 353 281 70 233 189 254 274 267 283 296 324 205 188 172 179 168 167 170 169 168 156 158 168 175 179 183 185 186 190 198 206 164 119 111 134 145 167 145 147 130 128 144 142 125 140 167 168 160 163 167 166 167 164 162 157 157 157 156 156 154 153 151 153 158 152 154 155 150 157 157 160 157 157 138 127 120 120 127 134 129 126 134 138 128 123 126 125 124 117
356 252 235 119 244 219 326 87 330 3 42 12 208 250 268 299 316 347 201 203 207 197 181 179 175 176 176 169 159 161 175 181 183 192 193 189 192 198 207 200 153 156 153 166 159 153 149 138 130 116 121 144 154 167 166 158 165 169 164 163 161 160 157 156 157 161 157 155 155 155 161 158 167 160 154 149 153 172 178 163 147 139 130 119 122 136 158 137 118 135 138 142 138 130 129 121 119
24 254 269 285 138 323 294 110 353 50 286 44 344 304 323 222 158 314 208 207 215 214 194 186 182 184 181 174 163 164 171 188 194 199 202 192 193 193 195 193 174 178 167 164 166 162 155 123 127 137 158 164 144 148 155 161 164 168 160 165 162 160 160 158 164 161 162 163 162 164 162 159 160 163 153 157 164 168 182 153 145 144 131 127 132 144 148 128 130 140 137 134 137 134 129 123 118
226 39 253 77 281 12 247 322 95 13 5 332 41 325 276 289 251 328 208 215 213 223 212 192 187 194 193 182 170 171 176 185 196 201 204 202 190 187 181 176 177 181 173 165 168 169 158 127 149 150 124 133 131 130 152 146 150 168 158 163 165 166 163 160 156 157 164 169 169 168 167 161 162 161 166 165 167 172 156 156 146 140 128 129 134 143 130 133 126 142 131 130 136 132 129 129 125
216 200 240 235 185 206 295 299 97 333 104 313 280 264 276 277 272 230 235 212 214 224 217 196 192 199 199 194 187 180 185 192 199 200 199 199 196 181 171 168 180 182 182 175 168 169 157 137 137 147 136 139 146 162 184 156 152 160 150 162 161 159 154 146 147 150 160 166 171 168 165 162 164 166 165 169 170 170 179 157 147 148 139 135 135 143 147 142 133 135 134 126 121 120 128 129 130
121 131 294 267 284 240 224 237 291 287 307 306 297 283 284 283 282 228 243 221 215 224 215 204 200 206 208 203 199 190 196 203 202 198 194 194 195 175 167 177 177 181 182 179 166 163 156 147 151 145 162 165 163 168 174 174 156 161 162 163 162 158 153 148 154 157 160 164 164 162 161 162 167 171 174 174 174 167 174 169 152 147 150 151 147 157 161 159 139 134 129 132 122 117 123 126 127
105 139 266 274 279 275 176 227 253 251 269 255 270 262 250 267 266 270 225 232 226 227 210 207 203 205 209 210 205 201 202 204 201 194 193 192 192 174 164 177 172 174 182 179 176 169 158 145 158 164 165 166 168 178 181 176 169 167 175 177 169 163 156 152 153 155 159 160 166 167 159 157 164 170 179 175 182 175 174 165 153 150 154 160 158 161 159 152 143 137 132 132 129 127 129 132 131
212 250 258 276 255 282 89 287 276 19 220 283 188 272 266 262 268 269 197 212 230 217 208 210 208 209 209 210 209 209 207 203 196 192 200 197 198 187 179 180 168 174 181 183 185 176 172 158 164 165 167 170 167 178 177 177 181 174 179 179 169 163 154 158 154 154 156 157 163 161 156 157 162 175 173 183 190 182 167 169 165 158 163 160 157 147 154 150 136 148 141 128 136 135 134 144 144
167 230 254 273 265 307 275 256 270 308 205 271 283 272 269 273 274 276 239 219 232 222 207 207 203 206 210 211 210 209 208 204 195 200 201 204 198 186 182 180 176 177 175 184 182 182 178 177 165 162 164 169 175 183 184 180 184 186 186 171 164 153 156 156 156 153 153 151 156 157 149 151 157 173 174 175 183 186 177 173 164 162 154 157 149 148 156 163 170 162 157 143 137 135 134 145 153
193 194 224 254 37 320 287 213 162 186 222 292 286 287 277 272 274 264 264 226 242 275 241 227 208 207 210 208 202 204 208 206 201 203 205 206 199 190 182 178 177 175 171 178 179 182 181 183 167 162 159 166 178 190 187 182 187 180 188 163 153 147 150 147 142 143 139 138 146 148 141 145 155 164 179 175 176 174 174 171 166 162 161 168 159 162 165 168 173 173 165 155 147 142 154 158 203
199 225 236 257 232 220 239 283 339 299 252 232 265 264 268 244 254 252 113 42 287 260 248 237 230 222 214 213 205 204 204 204 202 200 210 207 200 193 184 177 171 175 171 174 174 176 177 176 161 154 162 171 186 190 182 170 160 160 156 141 133 131 135 137 126 128 137 143 142 152 143 144 150 157 175 175 169 163 169 170 171 168 164 164 170 171 174 176 178 180 173 167 165 155 158 160 160
235 213 223 243 231 236 227 354 323 303 288 127 255 255 254 86 221 253 291 315 279 233 227 224 220 218 216 210 207 212 218 213 206 204 206 207 203 189 179 172 176 180 177 177 170 166 168 167 156 147 146 176 191 189 176 160 161 164 161 151 150 151 155 156 155 149 150 155 154 141 137 145 149 152 157 162 162 166 176 179 178 169 163 174 177 175 178 179 176 179 176 179 172 173 162 162 155
239 260 200 226 236 227 199 176 182 257 246 114 289 323 285 205 285 271 301 302 287 253 233 241 228 222 219 218 211 210 211 211 212 210 209 210 199 190 171 169 175 174 177 168 162 169 164 166 156 155 155 181 188 178 152 169 173 173 167 164 165 166 159 158 157 152 152 145 139 141 136 141 150 149 151 157 160 165 174 179 180 184 167 149 171 178 177 187 183 186 176 183 179 163 171 164 161
235 171 186 200 198 206 209 202 212 246 357 284 168 239 271 287 191 231 291 290 287 300 320 272 250 233 225 222 223 224 219 218 215 211 209 209 200 193 175 168 170 169 161 163 170 168 165 169 158 164 156 180 177 155 160 177 179 176 172 172 170 169 163 154 151 143 137 138 137 138 139 140 142 149 153 157 165 170 169 174 181 179 173 168 172 179 178 188 188 175 172 184 183 189 181 178 168
236 152 168 163 192 207 173 194 212 268 319 280 219 159 239 251 180 190 269 281 278 336 359 347 293 263 244 235 235 239 236 229 224 216 215 214 206 190 170 163 167 162 157 157 170 164 162 163 151 154 167 172 154 154 185 187 180 172 169 165 163 162 129 132 141 135 133 135 132 136 138 141 144 150 156 159 166 169 171 176 179 180 180 173 181 182 184 185 192 184 171 177 181 192 198 187 177
245 129 115 72 94 99 182 186 195 178 222 265 214 181 261 273 287 261 142 240 292 334 332 320 321 286 255 242 238 237 238 224 207 209 211 219 204 182 161 154 157 163 156 148 156 156 160 159 152 159 167 157 155 178 188 175 165 161 158 168 155 140 126 132 139 138 139 140 135 140 143 143 147 146 149 160 160 167 170 171 178 185 188 181 189 190 189 187 186 190 185 180 178 184 196 198 203
83 137 141 101 78 99 92 96 169 155 236 248 145 185 237 287 294 268 278 59 325 314 312 316 318 305 253 243 239 238 217 181 196 220 217 212 170 163 153 147 153 150 153 158 159 156 154 159 153 158 166 151 159 180 177 168 163 161 154 152 142 141 140 138 140 148 150 148 146 150 152 151 155 156 157 160 163 162 167 173 177 181 187 187 192 188 189 189 186 189 189 189 182 191 190 200 207
268 129 199 166 125 135 154 115 189 216 252 11 341 212 183 245 250 183 39 336 323 314 309 314 311 299 265 225 230 240 228 209 202 211 226 206 143 146 148 149 147 146 152 160 162 160 155 159 157 155 155 145 163 173 172 162 163 152 144 147 147 149 149 148 146 142 149 149 159 156 155 153 157 157 161 157 160 165 164 175 181 182 187 188 190 189 186 188 184 181 182 187 186 191 196 200 213
200 195 217 248 180 144 170 176 194 212 251 78 71 155 159 230 267 12 332 326 327 326 316 313 306 296 269 230 217 222 214 191 165 169 209 174 144 148 151 146 144 146 150 150 161 159 156 157 154 147 149 145 163 165 167 156 157 149 145 148 154 156 156 151 149 144 148 152 153 158 158 157 155 159 161 160 161 166 168 170 179 188 189 189 186 186 181 184 179 182 187 192 193 189 189 196 207
180 191 180 180 206 155 225 164 349 304 260 18 223 106 260 328 306 38 341 333 333 335 329 317 307 304 281 234 206 202 194 181 139 103 85 70 66 54 51 89 132 141 148 154 156 152 146 155 154 150 146 149 152 160 156 153 153 144 148 155 161 160 154 154 152 147 148 149 155 151 155 149 156 160 155 169 148 163 173 173 179 186 192 188 190 192 185 184 187 187 187 195 196 192 191 197 210
191 162 176 219 187 185 196 193 215 236 285 57 36 188 217 214 94 331 333 329 337 343 340 332 306 326 332 250 184 193 181 172 119 105 116 121 117 120 114 99 78 92 140 154 156 149 139 147 155 143 139 151 157 159 159 155 144 148 158 163 162 163 155 155 150 140 146 153 153 146 137 137 154 152 159 145 142 156 149 154 163 173 185 192 189 190 192 193 193 196 190 189 187 181 185 194 204
149 161 13 158 229 139 267 37 280 284 162 154 177 264 318 243 12 316 327 5 9 4 9 6 1 308 76 177 181 172 178 144 111 112 115 122 135 143 145 145 139 139 149 159 154 145 139 142 142 145 147 153 161 162 166 165 157 155 159 162 164 160 148 143 130 134 150 152 150 152 149 156 161 144 138 138 140 147 146 144 147 152 167 176 184 188 190 194 196 199 194 185 186 168 188 199 203
145 169 203 218 54 137 89 115 64 102 356 240 70 273 205 273 212 36 332 319 7 10 21 29 29 38 76 70 67 75 110 113 129 123 118 116 129 138 132 135 128 131 144 147 142 142 139 143 149 155 159 164 167 171 169 174 155 153 163 162 154 149 150 151 148 157 159 151 146 149 151 151 150 154 136 133 136 132 136 139 139 143 154 162 169 181 187 194 195 200 199 187 185 176 201 201 201
115 210 211 79 185 19 169 245 61 215 252 267 139 251 286 299 252 40 350 360 4 15 22 38 40 51 54 61 65 94 130 140 140 149 153 143 146 139 127 125 122 124 130 131 138 135 145 159 167 167 168 171 175 169 165 171 164 156 150 145 149 164 164 150 148 158 153 143 137 137 138 151 164 146 133 131 128 128 131 144 141 140 142 152 158 166 179 178 189 197 194 189 182 176 189 189 195
253 340 118 201 180 210 52 167 213 206 221 255 166 307 265 238 256 237 327 315 331 354 26 39 46 40 42 75 86 85 119 150 167 172 159 138 129 126 128 126 119 120 129 134 135 154 168 179 180 175 171 169 164 160 159 164 158 141 150 159 159 164 158 152 157 150 145 141 146 153 158 151 133 137 137 135 135 131 134 142 140 136 139 141 149 146 152 159 175 172 171 174 169 183 187 182 174
109 142 168 23 264 261 177 202 31 278 264 117 208 223 258 190 164 209 273 312 331 346 23 42 38 44 40 32 72 125 120 134 159 162 151 137 129 129 130 126 124 128 132 145 163 173 179 174 163 156 117 120 142 163 167 159 146 142 150 150 158 162 162 155 151 147 145 147 150 150 146 146 151 144 143 142 145 148 150 145 145 138 136 136 142 141 153 150 166 166 166 166 160 175 178 175 165
171 210 224 179 51 336 8 74 238 247 210 211 272 257 220 177 213 240 273 285 284 54 40 44 34 28 30 35 28 50 122 132 135 137 143 144 133 129 128 126 123 126 149 174 171 175 171 149 144 143 155 154 165 170 168 147 147 156 158 160 160 155 143 130 136 143 143 145 144 146 151 147 138 153 151 155 154 149 145 144 144 145 144 143 145 148 153 155 161 158 165 149 151 170 169 156 156
285 247 211 204 154 177 202 217 89 279 219 200 187 253 97 150 192 227 273 258 323 50 77 52 38 33 30 31 33 29 22 22 23 120 134 131 118 118 126 128 129 145 172 176 169 157 151 166 160 155 155 166 162 170 166 156 165 161 159 151 154 145 139 138 141 144 146 149 151 154 147 143 155 154 164 156 153 139 143 145 140 140 141 138 144 146 159 169 167 163 155 151 156 161 164 149 159